Wind_Speed
16 13 17 21 18 21 14 11 8 2 5 9 12 12 8 14 8 12 15 19 18 18 17 16 15 14 13 12 11 11 14 15 10 4 11 16 1 7 11 7 4 8 10 11
7 15 19 20 11 10 10 10 10 6 2 9 7 10 10 2 7 8 15 17 20 19 18 17 16 15 14 13 11 10 11 9 8 3 5 3 5 11 8 6 6 6 6 9
14 10 20 6 10 11 14 15 12 9 8 11 8 12 9 9 7 7 9 13 20 22 21 18 18 16 14 13 12 11 9 7 6 6 6 2 7 6 5 5 5 8 8 6
12 14 5 9 15 15 16 16 15 5 9 13 8 7 12 13 11 11 10 12 15 21 21 20 18 16 14 12 11 11 10 10 8 8 7 8 7 5 6 6 6 5 4 3
14 13 10 14 17 14 16 4 8 12 13 15 9 7 6 7 7 7 2 1 13 21 22 19 17 15 14 13 12 12 10 11 10 11 8 7 8 5 3 4 4 5 9 5
19 4 13 17 15 11 14 7 7 10 13 13 12 11 7 3 8 4 9 4 12 18 20 18 16 15 15 14 12 13 12 11 11 11 10 12 8 8 10 5 2 4 5 6
14 12 12 13 7 13 11 13 9 11 12 12 4 3 8 6 8 4 5 8 11 15 18 18 19 18 18 15 13 12 12 12 11 12 13 9 8 8 6 4 3 3 3 3
12 14 17 13 18 12 15 17 11 12 8 5 8 5 4 9 6 5 7 9 14 13 15 18 19 18 17 16 14 12 13 12 12 13 13 10 9 5 4 6 3 2 1 4
6 15 17 16 15 17 16 16 18 11 11 9 8 11 10 8 8 6 10 12 12 12 13 16 16 17 17 15 14 12 12 12 12 13 13 11 11 9 9 5 4 1 1 5
9 10 11 14 9 10 13 7 12 8 11 12 8 2 8 9 10 10 10 10 11 10 11 13 16 17 16 14 13 11 10 11 11 11 12 12 12 10 5 4 5 5 1 1
16 8 11 11 13 15 11 12 10 15 7 6 6 6 13 9 12 11 9 10 10 10 9 11 15 17 15 13 11 10 9 9 10 16 15 13 14 10 5 5 5 4 2 4
18 8 13 13 15 20 20 16 16 10 12 7 11 1 9 11 9 11 10 8 6 5 7 10 13 15 14 12 11 10 10 12 14 12 10 3 14 10 6 6 6 5 5 5
14 10 12 16 10 8 12 16 10 12 11 12 7 6 10 12 12 9 11 8 6 6 7 9 13 14 13 12 13 10 9 7 5 8 10 13 11 8 7 7 7 6 7 6
8 12 13 12 15 13 18 18 18 16 13 11 13 11 5 8 12 10 10 9 8 6 7 9 12 14 13 14 10 12 9 8 12 16 14 11 10 9 9 7 7 6 7 7
9 12 16 19 18 14 10 15 18 17 18 17 2 15 4 9 11 11 10 9 7 6 7 8 10 14 15 14 12 10 11 13 14 16 15 12 11 10 9 9 8 7 7 6
16 13 15 18 18 19 13 15 7 14 19 22 8 14 4 11 11 10 8 7 6 5 4 6 9 13 15 14 14 14 14 15 13 13 12 14 13 12 10 9 7 7 7 6
12 13 14 17 18 19 18 16 14 11 11 11 11 20 18 14 10 9 7 6 5 3 4 4 8 12 14 14 15 15 16 15 12 12 12 12 13 11 10 9 9 8 7 7
10 12 12 14 16 22 12 19 19 15 15 12 12 11 8 8 11 10 5 5 5 2 2 4 6 11 13 14 14 14 15 15 13 12 12 14 13 11 8 11 11 10 9 9
13 10 12 13 16 13 8 6 12 13 14 10 16 13 17 15 14 10 9 5 3 2 2 6 7 9 14 14 15 15 15 17 15 12 13 14 13 13 14 13 14 14 12 10
11 11 12 12 19 16 15 15 11 12 8 6 2 10 13 15 6 8 10 10 3 1 4 4 8 8 13 14 15 15 15 15 17 14 13 16 13 14 17 15 13 11 13 11
11 10 15 14 12 6 9 10 5 14 4 5 8 12 13 6 6 12 10 8 4 1 1 5 7 9 11 12 13 13 12 13 12 13 14 15 17 15 16 16 17 15 10 10
13 12 13 15 5 6 2 5 8 7 6 7 11 8 13 11 8 6 7 7 4 3 3 3 9 14 17 8 11 11 11 16 21 20 15 14 17 16 16 19 19 18 14 14
4 5 3 8 6 4 9 15 12 4 6 5 8 8 11 12 10 7 5 4 3 3 3 4 3 9 12 15 11 13 20 19 18 17 17 18 20 17 17 17 17 19 20 15
4 3 1 5 9 8 9 12 13 7 6 5 5 7 8 9 6 6 6 4 3 3 3 4 2 2 4 6 12 14 13 15 13 12 13 14 15 21 22 22 20 24 26 23
8 4 3 0 4 3 13 14 10 10 7 6 7 4 5 9 9 6 6 6 4 4 2 3 2 1 1 2 5 7 9 10 10 11 13 16 18 20 21 23 25 25 26 27
9 5 1 4 8 5 8 6 5 7 6 6 8 9 8 10 11 9 6 7 6 4 3 4 3 3 1 0 2 4 6 8 10 12 11 12 12 19 19 20 17 17 20 19
Wind_Direction
204 227 228 236 232 264 321 226 4 55 83 261 265 245 246 154 198 199 191 194 198 193 189 190 190 194 200 201 205 219 235 234 261 291 305 330 66 200 204 197 255 239 224 231
222 230 241 234 309 261 275 274 258 226 212 285 262 241 224 138 199 221 192 196 204 196 186 188 190 194 201 203 203 214 220 247 238 246 268 270 286 171 180 227 270 216 226 229
243 243 218 240 233 253 249 261 257 256 173 244 274 252 185 206 212 204 269 203 201 209 184 191 192 196 201 202 202 218 236 222 230 220 239 336 166 168 226 251 257 248 228 222
245 245 233 236 241 227 254 244 257 254 248 260 202 284 189 191 189 188 235 210 204 199 193 185 191 196 199 201 202 205 232 199 214 207 199 172 172 185 231 231 239 240 244 243
224 236 202 232 228 237 251 289 222 240 262 269 252 240 112 176 231 182 103 238 183 187 191 184 187 189 192 195 192 194 214 188 208 204 205 195 177 197 201 271 264 287 305 300
265 219 227 233 232 243 244 248 244 253 254 257 228 264 275 306 114 132 110 149 163 174 184 183 182 180 184 186 182 188 203 196 208 203 203 172 206 208 202 217 261 289 290 296
217 214 232 245 212 219 230 221 221 220 226 242 71 251 289 94 77 25 94 160 165 162 172 176 176 184 181 179 179 185 197 198 205 200 204 194 210 204 204 188 265 250 306 310
213 203 209 184 234 193 219 238 248 259 266 255 148 228 205 79 110 130 176 181 149 159 168 176 181 184 178 178 179 185 193 193 202 196 196 199 197 189 213 214 177 165 314 302
238 242 187 204 211 250 193 228 257 294 277 284 286 157 150 156 132 141 128 150 144 143 160 171 180 180 178 182 183 185 191 190 195 191 196 203 199 183 191 216 135 43 75 323
269 273 176 182 241 231 271 220 234 235 273 266 276 130 109 163 165 129 137 139 144 153 158 171 179 179 180 181 177 180 192 194 191 198 210 217 210 182 156 154 159 177 194 175
236 239 199 176 203 218 207 246 246 276 301 300 243 233 116 111 121 125 136 146 157 157 163 173 180 178 178 174 171 174 178 185 188 207 226 273 154 140 135 135 127 110 124 97
227 226 253 203 224 223 245 217 232 244 232 263 295 69 152 111 120 140 129 143 149 167 168 174 179 176 177 172 173 164 168 183 216 231 241 288 143 118 155 150 127 123 122 116
219 230 240 251 179 220 250 249 254 244 256 276 271 265 134 127 129 133 141 149 153 156 154 168 174 181 180 169 174 180 177 187 225 171 149 140 139 151 159 148 135 133 116 110
281 238 239 245 228 239 196 235 244 240 250 234 240 131 139 154 143 144 148 157 153 153 159 167 179 183 180 164 163 161 159 159 146 149 146 145 144 172 162 151 148 140 126 119
240 244 249 257 272 288 276 202 223 230 243 239 37 12 124 158 138 143 151 154 163 169 173 170 184 189 187 174 170 168 162 158 156 155 159 152 172 171 174 165 158 154 142 146
223 235 251 256 253 261 248 253 253 214 229 237 213 151 287 324 98 126 148 162 173 166 151 178 191 192 184 173 177 174 175 175 169 169 174 171 177 185 179 170 173 165 159 149
228 236 239 247 242 246 237 247 212 225 234 257 239 132 169 210 121 136 148 156 151 142 154 170 190 192 184 176 178 180 176 173 178 182 186 193 186 201 207 166 187 176 176 171
253 232 250 246 242 240 236 231 234 211 214 201 119 123 131 135 124 123 132 142 132 103 128 175 185 187 189 178 182 179 177 177 181 190 192 199 203 204 216 205 202 196 192 186
241 248 231 247 241 231 196 249 236 228 218 208 120 133 144 138 133 132 135 126 135 129 210 196 187 189 189 182 185 185 187 189 191 202 199 198 202 215 219 216 219 224 223 212
228 236 260 229 250 235 243 174 197 221 222 108 154 148 157 151 216 155 155 136 126 196 248 213 173 170 186 186 186 187 190 196 196 206 210 213 217 225 221 226 232 227 217 215
223 229 227 237 230 151 6 10 256 205 126 138 168 165 155 144 50 125 129 104 93 85 223 183 147 189 188 184 192 189 186 194 204 216 220 219 220 226 219 231 225 220 215 210
201 219 233 232 326 137 96 189 302 73 103 123 122 141 135 112 121 114 96 99 107 72 71 114 179 172 169 180 196 196 197 205 213 211 215 223 228 219 224 233 228 217 204 216
262 2 335 19 87 297 37 78 87 49 88 87 119 125 137 147 154 146 134 127 124 107 88 102 146 187 193 188 185 202 216 227 232 229 236 232 227 225 225 235 239 232 222 220
169 345 7 192 82 86 80 80 81 68 73 72 111 129 147 147 155 163 146 140 146 127 130 129 129 161 194 210 218 230 239 239 233 228 222 208 205 219 226 227 231 235 241 239
59 280 79 132 83 57 61 52 60 69 59 72 90 103 129 140 139 145 136 129 138 128 128 123 158 239 231 239 247 246 243 239 234 236 236 235 237 241 244 248 253 252 251 254
252 54 4 47 21 346 62 44 66 91 84 81 98 102 110 112 120 119 128 125 124 118 128 106 101 108 141 344 281 268 260 250 236 242 241 238 243 248 246 250 249 248 243 244
Height
1503 1504 1503 1492 1488 1480 1482 1492 1487 1486 1489 1496 1490 1486 1483 1488 1495 1498 1506 1514 1520 1524 1528 1533 1536 1538 1540 1542 1543 1545 1545 1545 1547 1548 1546 1541 1541 1541 1544 1547 1549 1548 1550 1550
1501 1506 1492 1488 1488 1485 1490 1494 1495 1487 1491 1493 1486 1488 1481 1486 1491 1494 1498 1507 1516 1520 1525 1531 1534 1536 1538 1540 1541 1543 1543 1542 1545 1547 1546 1545 1543 1542 1545 1547 1549 1549 1550 1550
1501 1489 1488 1493 1494 1498 1495 1496 1492 1495 1488 1489 1488 1492 1484 1486 1490 1495 1498 1499 1507 1514 1519 1528 1531 1533 1536 1539 1539 1541 1539 1541 1542 1544 1544 1543 1543 1546 1548 1549 1550 1550 1549 1549
1494 1488 1495 1498 1499 1495 1503 1487 1489 1490 1497 1502 1483 1508 1492 1480 1486 1489 1492 1495 1500 1509 1514 1522 1528 1531 1535 1537 1538 1539 1537 1538 1540 1542 1543 1544 1545 1547 1548 1547 1548 1548 1548 1548
1496 1492 1496 1499 1494 1490 1496 1480 1488 1492 1495 1492 1487 1498 1484 1481 1486 1484 1489 1495 1497 1504 1511 1519 1526 1529 1532 1535 1535 1537 1535 1538 1539 1540 1541 1543 1545 1546 1546 1547 1547 1549 1547 1546
1489 1489 1490 1490 1488 1489 1485 1492 1492 1492 1493 1508 1492 1494 1492 1482 1482 1484 1490 1497 1498 1503 1510 1517 1523 1528 1530 1531 1532 1534 1533 1535 1536 1539 1540 1541 1545 1545 1544 1546 1547 1549 1549 1547
1492 1491 1489 1489 1490 1490 1490 1496 1515 1519 1511 1508 1481 1498 1491 1483 1484 1486 1491 1495 1499 1503 1509 1515 1521 1524 1526 1529 1531 1533 1531 1533 1534 1537 1538 1540 1542 1543 1545 1544 1546 1546 1548 1547
1495 1502 1486 1484 1487 1490 1493 1490 1502 1521 1508 1497 1486 1506 1492 1482 1487 1491 1494 1495 1500 1504 1509 1514 1519 1522 1525 1528 1530 1532 1532 1533 1533 1535 1538 1539 1540 1543 1545 1543 1544 1545 1546 1545
1486 1489 1471 1478 1482 1481 1486 1498 1479 1492 1485 1500 1484 1482 1479 1482 1484 1490 1492 1496 1501 1504 1509 1514 1518 1521 1524 1526 1528 1530 1532 1533 1534 1535 1536 1537 1540 1540 1541 1541 1543 1543 1543 1544
1479 1495 1472 1477 1480 1479 1481 1477 1498 1494 1520 1517 1491 1488 1492 1486 1484 1491 1495 1500 1505 1507 1510 1513 1517 1520 1524 1526 1528 1531 1531 1533 1533 1536 1537 1536 1536 1537 1539 1541 1542 1541 1541 1542
1480 1487 1475 1475 1486 1484 1487 1489 1482 1477 1483 1498 1508 1487 1466 1477 1480 1488 1497 1502 1505 1508 1510 1513 1516 1520 1524 1527 1530 1531 1532 1533 1535 1533 1534 1529 1530 1536 1540 1542 1542 1542 1542 1542
1478 1480 1489 1481 1472 1474 1471 1478 1482 1497 1503 1491 1495 1499 1473 1481 1484 1491 1499 1504 1506 1508 1509 1512 1516 1520 1523 1526 1529 1531 1531 1531 1532 1533 1536 1536 1536 1539 1542 1543 1542 1543 1543 1544
1475 1485 1496 1490 1475 1476 1480 1476 1473 1476 1482 1496 1502 1495 1475 1482 1487 1493 1500 1504 1507 1509 1510 1513 1517 1520 1523 1525 1525 1528 1528 1529 1530 1532 1535 1538 1539 1542 1543 1543 1543 1543 1544 1544
1479 1477 1487 1485 1479 1466 1480 1481 1476 1480 1490 1490 1487 1495 1485 1483 1489 1497 1501 1504 1507 1509 1511 1513 1517 1520 1523 1524 1527 1529 1529 1531 1530 1532 1536 1538 1540 1543 1544 1545 1545 1545 1545 1545
1480 1491 1483 1474 1469 1463 1461 1470 1473 1480 1479 1485 1482 1495 1490 1487 1485 1495 1501 1505 1507 1509 1511 1513 1517 1520 1520 1524 1528 1531 1533 1532 1532 1534 1536 1539 1542 1543 1544 1545 1545 1546 1546 1547
1479 1488 1482 1479 1470 1467 1472 1465 1465 1469 1471 1472 1470 1494 1493 1499 1491 1496 1502 1505 1508 1510 1510 1513 1516 1519 1520 1524 1528 1531 1533 1534 1535 1536 1539 1540 1542 1543 1544 1546 1546 1546 1546 1547
1478 1480 1485 1488 1469 1470 1480 1469 1465 1468 1466 1469 1478 1489 1502 1503 1496 1501 1503 1505 1508 1511 1512 1513 1516 1518 1520 1524 1527 1530 1532 1534 1537 1539 1539 1540 1542 1542 1543 1545 1547 1546 1547 1548
1479 1483 1479 1481 1474 1492 1462 1454 1457 1463 1463 1464 1475 1484 1486 1497 1499 1501 1505 1506 1510 1512 1513 1514 1515 1517 1520 1523 1526 1529 1531 1533 1537 1539 1539 1539 1540 1542 1542 1544 1546 1546 1546 1547
1476 1476 1477 1482 1477 1462 1456 1458 1458 1461 1467 1460 1467 1483 1492 1495 1499 1503 1503 1507 1511 1512 1513 1513 1513 1517 1520 1521 1525 1527 1528 1530 1534 1536 1536 1536 1538 1539 1541 1543 1544 1544 1544 1545
1472 1474 1476 1468 1482 1485 1455 1447 1454 1457 1476 1468 1473 1483 1489 1490 1489 1490 1504 1500 1509 1510 1509 1510 1513 1516 1518 1521 1523 1525 1527 1529 1531 1534 1534 1534 1535 1537 1539 1541 1541 1542 1543 1544
1476 1475 1476 1469 1470 1469 1466 1466 1466 1477 1485 1477 1479 1483 1487 1487 1493 1502 1502 1504 1507 1509 1509 1509 1513 1518 1519 1521 1523 1525 1526 1528 1530 1531 1531 1532 1533 1534 1536 1538 1539 1540 1541 1542
1468 1475 1469 1461 1484 1483 1474 1472 1479 1483 1482 1481 1483 1487 1488 1494 1499 1500 1501 1507 1512 1512 1509 1510 1512 1513 1515 1519 1522 1523 1525 1525 1525 1527 1528 1530 1531 1531 1533 1535 1536 1537 1539 1540
1478 1479 1480 1480 1488 1496 1482 1484 1483 1488 1487 1489 1489 1490 1492 1497 1501 1506 1509 1511 1513 1513 1513 1512 1511 1511 1513 1515 1518 1521 1520 1521 1522 1523 1524 1525 1527 1528 1530 1531 1532 1533 1535 1536
1472 1475 1471 1478 1483 1490 1488 1486 1485 1492 1494 1493 1492 1494 1495 1498 1503 1507 1508 1511 1513 1514 1515 1515 1514 1511 1512 1513 1514 1515 1516 1516 1519 1520 1520 1522 1523 1523 1524 1526 1528 1530 1528 1531
1480 1475 1474 1473 1481 1482 1484 1486 1488 1491 1495 1496 1496 1498 1500 1499 1503 1507 1510 1511 1514 1514 1516 1515 1515 1511 1512 1512 1513 1514 1514 1515 1516 1517 1517 1518 1519 1519 1520 1521 1522 1523 1524 1524
1479 1485 1476 1490 1489 1488 1492 1494 1494 1494 1497 1499 1499 1500 1505 1503 1503 1507 1512 1512 1514 1515 1516 1515 1514 1514 1513 1512 1512 1512 1512 1513 1513 1514 1515 1515 1515 1514 1515 1516 1516 1517 1518 1519